Left ArrowRight Arrow

32.19382, -80.73816

Hourly Observations for May 15, 2016

Temp ( °F °C ) Dew Point ( °F °C ) Humidity (%) Winds ( mph kmh ) Pressure ( in mb ) Visibility ( mi km ) Precip ( " mm )
12:15 am 00:15 Clear 72 22 54 12 53 53 SW 6 9 29.91 1013 10 16 0.00 0.03
12:35 am 00:35 Clear 72 22 54 12 53 53 SW 7 11 29.91 1013 10 16 0.00 0.03
12:55 am 00:55 Clear 72 22 54 12 53 53 SSW 6 9 29.94 1014 10 16 0.00 0.03
1:15 am 01:15 Clear 72 22 54 12 53 53 SW 6 9 29.94 1014 10 16 0.00 0.03
1:35 am 01:35 Clear 72 22 54 12 53 53 SSW 5 7 29.94 1014 10 16 0.00 0.03
1:55 am 01:55 Clear 70 21 54 12 57 57 SW 6 9 29.94 1014 10 16 0.00 0.03
2:15 am 02:15 Clear 70 21 54 12 57 57 SW 6 9 29.94 1014 10 16 0.00 0.03
2:35 am 02:35 Clear 70 21 54 12 57 57 SW 8 13 29.94 1014 10 16 0.00 0.03
2:55 am 02:55 Clear 72 22 54 12 53 53 WSW 6 9 29.94 1014 10 16 0.00 0.03
3:15 am 03:15 Clear 72 22 54 12 53 53 W 6 9 29.94 1014 10 16 0.00 0.03
3:35 am 03:35 Clear 72 22 54 12 53 53 W 6 9 29.94 1014 10 16 0.00 0.03
3:55 am 03:55 Clear 70 21 54 12 57 57 WNW 6 9 29.94 1014 10 16 0.00 0.03
4:15 am 04:15 Clear 70 21 54 12 57 57 WNW 7 11 29.94 1014 10 16 0.00 0.03
4:35 am 04:35 Clear 70 21 54 12 57 57 NW 5 7 29.94 1014 10 16 0.00 0.03
4:55 am 04:55 Clear 70 21 52 11 53 53 NNW 6 9 29.97 1015 10 16 0.00 0.03
5:15 am 05:15 Clear 70 21 52 11 53 53 NNW 6 9 29.97 1015 10 16 0.00 0.03
5:35 am 05:35 Clear 68 20 52 11 56 56 NNW 8 13 29.97 1015 10 16 0.00 0.03
6:50 am 06:50 Mostly Sunny 66 19 46 8 49 49 N 14 22 30.03 1017 10 16 N/A
8:50 am 08:50 Mostly Sunny 68 20 46 8 46 46 N 12 19 30.09 1019 10 16 N/A
9:50 am 09:50 Mostly Sunny 68 20 46 8 46 46 NNE 9 15 30.09 1019 10 16 N/A
10:50 am 10:50 Mostly Sunny 72 22 50 10 47 47 N 12 19 30.09 1019 10 16 N/A
11:50 am 11:50 Partly Cloudy 79 26 48 9 34 34 N 9 15 30.12 1020 10 16 N/A
12:50 pm 12:50 Mostly Cloudy 81 27 48 9 32 32 N 12 19 30.09 1019 10 16 N/A
1:50 pm 13:50 Mostly Cloudy 79 26 46 8 32 32 NNE 9 15 30.09 1019 10 16 N/A
2:50 pm 14:50 Mostly Cloudy 82 28 50 10 32 32 NE 7 11 30.06 1018 10 16 N/A
3:50 pm 15:50 Partly Cloudy 79 26 55 13 45 45 SSE 5 7 30.06 1018 10 16 N/A
4:50 pm 16:50 Mostly Sunny 73 23 55 13 53 53 ESE 6 9 30.06 1018 10 16 N/A
5:50 pm 17:50 Mostly Sunny 72 22 55 13 57 57 ESE 7 11 30.06 1018 10 16 N/A
6:50 pm 18:50 Mostly Sunny 70 21 57 14 64 64 ESE 7 11 30.03 1017 10 16 N/A
8:15 pm 20:15 Clear 70 21 57 14 64 64 SSE 5 7 30.06 1018 10 16 0.00 0.03
8:35 pm 20:35 Clear 68 20 57 14 69 69 SSE 5 7 30.06 1018 10 16 0.00 0.03
8:55 pm 20:55 Clear 66 19 57 14 73 73 SSE 5 7 30.06 1018 10 16 0.00 0.03
9:15 pm 21:15 Clear 66 19 57 14 73 73 SSE 6 9 30.06 1018 10 16 0.00 0.03
9:35 pm 21:35 Clear 66 19 59 15 78 78 S 5 7 30.09 1019 10 16 0.00 0.03
9:55 pm 21:55 Clear 66 19 59 15 78 78 SSE 5 7 30.09 1019 10 16 0.00 0.03
10:15 pm 22:15 Clear 64 18 59 15 83 83 S 3 6 30.09 1019 10 16 0.00 0.03
10:35 pm 22:35 Clear 64 18 57 14 78 78 Calm 30.09 1019 10 16 0.00 0.03
10:55 pm 22:55 Clear 63 17 57 14 83 83 Calm 30.12 1020 10 16 0.00 0.03
11:15 pm 23:15 Clear 63 17 57 14 83 83 Calm 30.12 1020 10 16 0.00 0.03
11:35 pm 23:35 Clear 63 17 57 14 83 83 Calm 30.12 1020 10 16 0.00 0.03
11:55 pm 23:55 Clear 63 17 59 15 88 88 Calm 30.12 1020 10 16 0.00 0.03

Powered by Vaisala Xweather